GFSNW_con_lsi_231.txt.gz
Lid_Strength_Index
4 3 3 4 5 6 6 6 8 3 2 7 7 9 7 6 6 5 5 6 7 9 8 8 8 9 8 5 6 9 8 11 14 11 7 6 9 11 12 15 16 14 15 16
4 4 3 3 4 5 7 8 6 2 3 10 9 7 7 6 6 6 6 7 6 7 9 11 9 8 6 5 7 9 9 12 15 14 10 8 10 9 10 11 12 15 17 15
4 4 4 3 4 5 6 7 9 5 5 5 8 9 8 8 5 6 5 6 6 8 9 8 10 9 6 5 6 5 7 11 13 16 13 10 12 10 9 11 16 14 13 13
4 4 4 3 4 4 5 5 7 6 9 8 8 7 8 8 8 6 5 7 7 8 12 10 10 8 7 6 6 7 9 13 12 10 9 9 9 9 10 12 11 14 12 12
4 4 4 4 3 4 4 6 7 5 8 7 8 8 9 9 7 7 7 8 7 7 10 10 11 8 9 9 8 9 9 13 12 12 9 9 10 9 9 9 9 10 9 12
5 4 4 4 3 4 5 4 3 5 7 8 9 9 7 7 7 6 6 6 7 9 8 6 6 6 7 8 9 10 11 12 13 16 10 11 13 10 9 9 8 9 13 10
4 4 4 4 3 3 6 5 5 7 9 7 7 6 6 6 6 7 6 6 8 6 4 5 6 7 7 7 8 7 11 12 12 16 13 19 11 7 7 8 8 8 8 8
4 4 4 3 3 3 5 5 5 6 9 7 7 6 6 6 6 6 6 6 5 4 6 9 11 11 11 9 7 8 8 11 14 17 17 13 10 9 9 11 10 7 8 7
4 5 4 4 3 2 4 5 3 4 8 8 6 7 6 8 8 8 6 5 4 6 8 10 14 15 12 12 11 7 8 9 13 15 18 19 12 7 6 8 14 7 7 7
4 4 4 4 4 3 3 5 3 4 7 5 5 7 8 5 7 9 7 7 7 6 10 12 13 13 9 14 14 13 13 13 15 16 17 13 8 6 6 14 13 7 7 7
4 4 4 4 4 3 4 6 4 4 6 5 5 5 6 6 6 9 7 8 8 9 12 11 12 12 11 10 10 12 13 14 15 14 17 18 6 7 11 10 7 7 7 6
4 3 3 3 4 3 3 6 4 3 6 5 4 4 3 4 4 6 6 8 8 8 10 10 10 11 11 12 14 9 14 11 13 12 13 8 7 8 7 6 7 6 6 6
3 3 3 3 3 3 3 5 5 5 7 6 7 6 3 2 2 2 7 6 6 7 6 8 9 11 9 13 12 11 9 8 11 11 10 8 7 6 5 5 6 5 5 6
3 3 3 3 3 3 2 4 4 4 6 9 7 3 4 1 2 2 2 4 4 5 5 8 10 11 7 10 9 10 9 9 10 10 9 7 7 6 5 5 4 5 5 5
2 2 2 2 2 3 3 3 3 3 6 9 8 6 4 3 2 2 2 4 5 6 8 9 10 8 8 8 8 10 8 9 11 12 7 8 7 5 5 5 5 5 5 6
1 1 1 1 2 2 3 5 2 2 2 7 9 5 4 3 2 3 4 4 5 6 7 8 7 6 7 11 11 7 6 6 6 7 6 6 5 5 4 5 5 5 5 5
0 0 1 1 1 2 5 5 3 2 2 6 8 8 5 3 3 4 4 4 5 5 7 8 8 7 7 9 12 7 6 5 5 5 5 7 5 6 4 4 4 4 4 5
-0 -0 0 0 0 1 4 2 1 1 3 4 9 8 6 3 6 7 4 6 5 6 7 7 8 7 8 11 8 6 5 5 5 5 5 5 4 4 5 5 5 5 6 6
0 -0 -0 1 2 5 4 -2 -1 -1 3 8 8 9 10 4 6 5 6 5 9 6 8 8 7 9 11 8 7 6 5 6 6 5 4 5 5 5 5 5 5 6 6 6
0 1 3 5 3 -3 -1 2 4 4 4 5 9 6 9 6 7 8 8 7 9 11 8 6 9 9 7 6 5 5 5 4 4 6 6 6 6 5 5 5 5 5 5 6
2 4 5 1 -2 1 4 7 8 7 9 7 6 6 8 5 9 9 7 10 8 11 10 9 10 11 7 5 5 4 4 4 4 4 4 4 5 4 5 4 4 4 5 6
1 2 1 1 4 6 8 9 8 9 10 7 8 7 6 6 5 8 8 10 9 12 7 10 12 8 6 5 5 4 4 4 4 3 4 4 4 3 4 4 4 5 5 6
0 3 5 6 7 11 11 12 11 10 7 6 6 8 6 6 6 8 9 11 12 8 11 11 10 7 6 5 4 4 4 3 4 4 3 3 3 3 3 4 4 4 6 5
5 7 10 9 10 9 8 8 7 6 6 6 5 6 7 6 9 8 11 9 9 13 14 12 9 7 5 5 4 4 4 4 4 4 3 3 4 4 3 3 4 5 6 5
6 7 11 8 6 6 6 5 6 5 4 6 7 7 7 8 9 8 9 12 14 13 13 10 7 6 5 5 5 4 4 4 4 4 4 4 4 4 4 4 4 5 5 5
5 6 8 6 7 7 7 6 7 5 5 5 6 8 10 10 9 11 11 12 13 11 9 7 6 6 6 5 4 4 4 4 4 4 4 4 4 4 4 4 5 5 5 5
6 7 5 5 6 7 6 5 6 4 6 9 8 10 10 8 11 11 9 10 9 8 7 6 5 7 5 4 4 4 4 4 4 4 4 4 3 3 4 5 5 6 5 5

GFSNW_con_lsi_234.txt.gz
Lid_Strength_Index
5 4 4 4 4 5 7 9 10 4 5 9 9 10 8 7 6 5 7 7 6 8 8 10 10 10 8 6 7 9 9 11 14 12 8 7 10 12 13 16 16 15 16 16
5 5 4 4 4 5 7 12 11 5 5 11 11 8 7 6 7 7 7 8 7 7 9 11 9 8 6 6 7 9 9 13 15 13 11 9 10 9 11 12 14 15 17 15
4 5 5 4 4 4 8 10 10 7 7 8 10 9 9 9 6 7 7 7 7 8 9 9 10 9 7 6 7 6 7 12 13 15 13 11 12 10 10 12 17 15 14 14
4 4 5 4 4 4 7 9 9 8 12 10 10 10 8 9 9 6 7 8 7 9 11 10 10 8 8 8 6 8 10 13 12 11 10 9 10 10 10 13 12 14 12 13
4 4 4 4 4 4 6 8 9 8 9 9 10 11 10 9 8 8 8 9 8 8 11 10 10 9 10 11 9 10 10 13 12 13 10 10 11 10 10 11 11 12 11 12
4 4 4 4 3 5 10 7 7 8 9 11 12 11 10 9 9 7 6 7 8 9 8 7 7 8 8 9 10 11 11 12 14 16 11 11 14 11 11 11 10 11 14 11
4 4 4 3 4 4 8 9 8 9 10 9 10 8 8 9 9 9 6 7 8 7 5 7 7 8 8 8 9 8 11 12 13 15 13 19 12 8 8 10 9 9 9 8
4 4 4 4 3 3 6 8 9 7 10 8 8 8 9 8 8 8 8 6 5 6 7 10 11 11 11 9 8 9 8 11 15 16 17 13 11 9 10 12 11 8 9 9
4 4 4 4 4 3 5 8 5 7 9 10 7 8 7 9 10 9 7 5 5 6 9 10 15 15 12 13 11 8 9 10 13 15 18 19 12 8 7 9 15 8 7 8
4 4 4 4 4 4 5 7 5 7 9 7 7 9 9 7 9 10 8 8 7 7 10 12 14 13 10 14 14 13 13 13 15 16 18 14 9 7 7 14 13 8 7 7
4 4 4 3 4 4 5 8 5 6 9 8 7 6 8 8 9 11 9 9 8 10 11 12 12 13 11 12 11 12 13 14 15 15 17 18 7 8 11 10 9 8 8 8
3 3 4 3 3 3 4 9 6 6 9 8 6 6 5 6 6 9 9 10 9 8 11 11 11 12 11 12 14 10 14 11 13 12 13 9 8 8 7 8 8 8 8 8
3 3 3 3 3 3 3 6 7 8 10 10 10 9 6 5 6 5 9 8 7 8 7 9 10 12 11 13 12 12 10 8 11 11 10 9 7 6 7 7 7 7 7 7
3 3 3 3 3 3 3 5 6 8 8 12 10 6 7 5 6 5 4 5 7 6 7 9 10 11 9 11 10 10 9 9 10 11 9 8 7 7 6 6 6 6 6 7
1 2 2 2 2 2 4 5 6 5 8 11 10 8 6 7 7 6 4 4 7 9 9 9 10 9 10 10 10 11 8 9 11 12 8 8 7 7 6 7 7 7 7 7
1 1 1 1 1 2 6 8 5 5 4 8 12 8 7 6 6 5 5 5 5 7 8 9 8 8 9 12 12 9 7 7 6 8 6 7 6 6 6 7 7 7 7 7
0 1 1 1 1 5 8 8 4 2 4 7 11 10 6 6 7 5 6 5 6 7 7 9 9 9 9 11 13 8 6 6 6 5 5 7 6 7 6 6 7 6 7 6
-0 0 0 0 0 2 4 4 3 2 5 5 11 10 9 6 8 8 6 7 7 7 7 8 8 9 9 12 9 7 6 6 6 6 6 6 6 6 6 6 7 8 8 7
-0 0 0 3 3 7 6 1 0 2 4 8 9 11 12 6 7 7 7 7 10 7 9 8 8 10 12 9 8 7 6 6 6 5 5 5 6 7 7 7 7 8 8 7
-0 3 6 7 6 0 -1 3 6 6 5 7 8 8 10 8 8 9 9 8 9 12 9 8 9 9 8 6 6 6 5 5 5 6 7 6 7 7 7 7 7 7 7 7
5 7 7 4 -1 3 4 8 8 7 9 7 8 8 9 7 10 10 8 10 9 13 10 10 12 12 7 6 6 5 5 5 4 4 4 4 5 6 6 6 6 6 6 6
4 4 2 3 5 6 9 10 8 9 10 8 9 8 7 8 6 9 8 10 10 14 8 11 13 10 7 5 5 5 5 4 5 5 5 5 5 5 5 5 6 6 6 6
3 4 6 6 7 11 11 13 12 11 8 8 7 9 8 7 7 9 9 12 12 8 12 13 11 8 6 6 5 5 5 4 4 5 4 4 4 4 5 5 5 5 6 6
6 7 12 10 11 10 10 10 9 7 7 7 7 8 8 7 9 9 11 10 10 14 15 13 10 8 6 6 5 5 5 5 5 5 4 4 4 5 5 5 5 6 6 6
7 7 11 10 7 6 6 6 7 6 5 7 7 8 8 9 10 9 10 13 14 12 13 11 8 6 6 6 5 5 5 5 5 5 5 5 5 5 6 5 6 5 5 6
6 7 9 8 9 9 7 7 8 5 6 6 7 9 10 11 10 12 12 13 14 12 9 8 7 7 6 7 6 4 4 5 5 5 5 5 5 6 6 6 5 5 5 6
7 9 6 7 8 9 8 7 7 4 6 9 9 11 11 9 12 12 10 12 10 8 7 6 6 6 6 5 5 4 5 6 6 6 6 6 5 5 6 7 6 6 6 6

GFSNW_con_lsi_237.txt.gz
Lid_Strength_Index
4 4 5 5 4 5 7 11 11 5 5 9 10 10 8 7 6 6 7 8 8 9 9 10 10 10 8 6 7 10 10 12 14 12 9 8 11 13 14 16 17 16 16 16
4 4 4 4 4 4 7 12 12 7 6 12 12 9 7 7 7 7 8 10 8 8 10 12 10 9 7 6 7 9 10 13 16 14 12 10 11 10 12 14 15 16 17 16
4 4 4 4 4 5 7 10 10 9 9 9 10 11 9 9 6 7 7 9 8 9 10 10 10 9 8 7 7 6 7 13 14 16 14 12 12 11 11 13 17 16 14 14
4 4 4 4 4 5 8 8 9 9 12 10 10 11 9 9 10 8 8 10 9 10 12 11 11 9 9 8 7 8 11 13 13 12 10 10 11 11 11 13 13 15 14 13
4 4 3 3 4 5 8 10 10 9 10 10 11 11 11 10 10 9 10 10 8 10 11 10 11 10 11 11 10 11 11 14 12 13 10 11 12 10 10 11 11 12 12 13
4 4 3 3 3 5 11 9 9 9 9 10 12 11 10 9 9 8 7 8 9 10 9 7 8 9 9 9 10 11 12 12 14 16 11 12 14 11 11 11 11 11 14 11
4 4 4 3 3 3 7 10 10 10 11 9 10 10 9 10 9 10 7 7 9 7 6 8 8 9 9 9 10 9 12 13 14 16 14 19 12 8 9 10 9 10 9 9
4 4 4 4 4 4 6 7 10 8 10 8 8 9 10 9 9 10 8 7 6 7 8 11 12 12 11 10 8 10 10 12 15 17 17 13 11 9 11 12 12 9 9 9
4 4 4 4 4 4 6 8 6 7 9 11 7 8 9 12 12 11 8 7 7 7 9 11 15 15 13 13 12 9 10 11 13 16 18 19 12 8 8 9 15 8 9 9
3 4 4 4 3 4 6 7 6 7 8 8 8 10 10 8 10 12 10 10 9 8 11 13 14 14 10 15 14 14 13 13 15 17 18 14 9 8 8 14 13 8 8 9
3 3 3 3 3 3 6 8 6 8 9 9 8 7 10 9 10 11 10 10 9 11 12 12 13 13 12 12 11 12 13 15 15 15 17 18 7 8 11 10 10 8 9 9
3 3 3 3 3 3 4 8 7 6 10 9 7 6 6 6 7 9 11 11 10 9 11 12 12 12 13 13 15 10 14 12 13 13 13 9 8 9 8 8 9 9 9 9
2 3 3 3 3 3 4 6 8 9 10 10 11 9 7 6 6 5 12 10 7 9 7 9 10 13 11 14 13 12 10 9 11 11 10 9 8 7 8 8 8 8 8 8
2 2 2 2 2 3 3 6 8 8 9 11 11 6 8 5 7 7 7 8 7 8 8 10 11 12 10 12 11 11 10 9 10 11 10 8 7 7 7 8 7 7 8 8
1 1 1 1 2 2 4 7 8 6 9 12 11 8 7 8 8 8 6 7 9 9 11 11 11 10 11 11 11 12 9 10 11 12 8 8 8 7 7 8 8 8 8 8
0 1 0 1 1 1 7 10 6 5 4 9 13 8 7 8 7 8 8 7 8 7 9 10 9 8 10 12 13 10 9 8 8 8 6 7 7 7 7 8 8 7 8 8
0 0 0 0 0 5 7 9 4 3 5 8 12 11 7 6 7 7 7 6 6 7 8 9 9 10 10 12 14 9 8 7 7 6 6 7 7 8 7 8 7 7 8 8
-0 -0 -0 0 0 2 5 4 2 3 7 6 11 11 10 6 8 8 7 8 7 8 8 8 8 9 10 12 10 9 7 6 6 6 6 6 7 7 8 7 8 9 9 9
-0 -0 -0 3 3 7 7 1 2 4 5 9 11 12 13 7 8 7 7 8 10 8 9 9 8 10 11 9 9 8 7 6 6 6 6 6 7 7 8 8 8 9 9 9
-0 3 6 8 6 1 0 4 7 7 5 6 10 7 11 9 10 9 9 8 9 12 9 8 10 10 8 7 7 6 6 5 5 8 8 7 8 8 8 8 8 8 8 8
5 7 8 5 1 2 6 8 8 9 9 8 9 9 10 8 10 10 9 10 10 13 11 11 12 13 8 6 6 6 6 5 5 5 5 5 5 7 7 8 7 7 7 7
5 5 4 4 5 6 8 9 8 9 11 9 10 9 9 9 8 9 9 11 10 13 9 12 14 11 8 6 5 5 6 5 5 5 5 6 6 6 7 7 7 7 7 7
4 5 7 7 7 11 11 12 11 11 8 7 7 9 9 9 8 9 10 11 12 9 12 13 11 9 7 7 6 5 5 5 4 5 5 5 5 5 6 6 6 6 7 7
8 8 11 10 11 10 10 10 9 7 7 7 7 8 9 8 10 9 12 10 10 14 15 14 10 8 7 6 5 6 5 5 5 4 5 5 5 5 6 6 6 6 7 6
8 7 11 10 7 7 7 6 6 6 5 6 8 8 8 10 11 10 11 13 14 12 13 11 8 8 7 6 5 5 6 5 4 4 5 5 5 6 7 7 6 6 6 6
6 7 9 8 9 8 8 7 7 5 6 5 6 9 11 11 10 12 13 13 14 12 9 8 7 7 6 6 5 5 5 5 5 5 5 5 6 7 7 7 7 6 6 6
8 8 7 8 9 10 9 6 7 4 6 9 9 11 12 9 12 13 10 12 10 8 7 8 7 7 7 6 5 5 5 5 5 6 6 6 7 7 7 8 8 7 6 6

GFSNW_con_lsi_240.txt.gz
Lid_Strength_Index
4 4 4 4 5 5 6 12 11 7 5 9 11 12 9 7 7 7 8 9 9 10 10 11 12 11 9 7 8 10 11 13 14 13 10 9 12 14 14 16 17 16 17 16
4 4 4 4 5 5 7 12 12 7 7 11 12 9 8 7 7 8 8 9 9 9 11 12 10 9 7 7 8 9 10 14 16 14 12 10 12 12 13 15 16 16 17 16
4 5 4 4 4 5 7 10 10 9 9 10 11 11 10 9 6 7 7 8 8 10 11 10 11 10 8 7 8 6 8 14 14 16 14 12 13 11 12 14 17 16 15 14
4 4 4 4 4 4 8 9 10 10 13 11 11 12 10 10 10 9 9 10 10 10 12 12 12 10 10 8 6 9 11 13 13 13 11 11 12 11 11 13 13 14 13 13
4 4 4 4 4 4 9 11 11 10 11 11 12 11 11 10 10 10 10 10 9 10 12 10 11 11 11 11 10 11 12 14 13 14 11 11 12 10 10 11 12 12 12 13
4 4 4 4 4 5 11 10 10 9 10 10 12 11 10 9 9 8 8 8 9 10 10 8 8 9 9 10 10 12 12 13 16 17 12 13 15 12 11 11 11 11 13 11
4 4 4 4 4 4 7 8 8 10 12 10 10 10 10 10 9 10 8 8 9 7 7 9 8 9 9 9 10 10 13 14 15 16 15 19 12 9 9 11 10 9 9 9
3 4 4 4 4 4 6 6 8 9 13 10 10 8 10 10 10 10 8 6 7 7 8 11 12 12 11 10 9 10 11 13 16 17 17 13 11 10 11 12 12 9 10 10
3 3 4 4 4 3 7 8 7 8 9 13 8 9 9 11 10 10 9 7 7 7 9 11 15 16 13 14 13 10 11 12 14 16 18 19 12 8 8 9 14 9 9 10
3 3 3 3 3 3 7 8 8 8 10 8 9 11 11 9 10 12 11 10 9 8 11 13 14 15 11 15 14 14 13 14 15 18 18 14 10 8 8 14 13 9 8 9
3 3 3 3 3 3 6 8 8 9 10 10 8 7 11 10 10 12 11 10 10 10 12 13 13 13 12 13 12 12 14 15 16 16 17 17 8 9 11 10 10 8 9 10
3 3 3 3 3 3 4 10 8 7 9 10 8 7 6 7 8 9 10 11 11 9 12 12 13 13 13 13 15 11 14 12 13 13 13 9 8 9 9 8 8 9 9 9
2 2 2 2 3 3 3 6 7 7 10 10 11 10 8 6 6 6 11 12 9 10 9 10 11 13 12 14 14 12 11 10 12 11 10 9 8 7 8 7 8 8 8 8
1 1 1 1 2 2 3 5 8 8 10 12 12 7 8 6 7 7 7 9 10 9 9 11 11 12 10 12 11 11 10 9 11 11 10 9 7 7 7 8 8 8 8 8
0 0 1 1 1 1 4 7 8 7 10 13 12 9 8 7 7 7 7 8 10 11 11 12 11 10 11 12 12 13 9 10 11 12 8 8 8 7 7 8 8 8 8 9
-0 -0 0 0 0 1 6 10 4 5 6 9 14 10 9 8 8 9 9 8 9 9 11 11 10 9 11 13 14 10 9 8 8 8 7 7 7 7 7 8 8 8 8 8
-0 -0 -0 -0 -0 5 7 10 4 2 5 8 12 12 9 7 8 9 9 8 8 8 8 9 9 10 10 13 14 10 9 8 8 7 6 7 7 7 8 8 8 7 8 9
-0 -0 -0 -1 -0 2 4 4 2 2 6 7 11 12 11 8 10 9 6 8 8 8 9 9 9 9 10 12 10 9 8 6 7 6 6 6 7 8 8 8 8 9 10 10
-0 -0 -0 3 3 7 7 1 1 4 6 9 9 12 13 8 9 8 8 7 10 8 10 9 9 11 12 10 8 8 7 6 6 6 7 7 7 9 8 8 8 9 10 9
-0 3 6 9 7 1 0 3 8 9 9 7 10 8 11 10 9 11 10 8 10 12 10 9 10 10 9 8 7 7 7 6 6 7 8 8 9 8 8 8 7 8 8 9
4 7 8 6 1 3 5 9 9 8 9 8 8 10 11 9 11 11 8 11 10 13 11 11 13 13 9 6 6 5 7 6 5 5 5 5 6 7 8 8 8 8 8 8
4 6 4 5 5 6 8 9 8 9 11 9 10 10 10 10 10 10 8 12 10 14 9 12 14 11 8 7 6 5 6 6 5 5 5 5 6 6 7 7 7 8 8 7
4 6 7 7 7 11 12 12 12 11 8 7 7 9 8 10 9 11 9 11 12 9 12 13 11 9 7 6 6 6 6 6 5 5 5 5 6 6 6 7 7 7 7 7
7 9 11 9 11 10 10 9 9 7 7 7 7 8 8 9 10 9 12 10 10 14 14 14 10 8 7 6 5 5 6 6 5 5 5 5 6 6 6 6 7 7 7 7
8 7 12 10 8 7 7 6 6 6 5 6 7 8 9 10 10 10 11 13 14 13 13 11 10 8 7 6 6 6 6 6 5 4 5 5 6 7 7 7 7 6 6 6
7 7 9 8 10 9 8 8 8 6 6 5 6 9 10 11 11 12 13 13 14 12 10 8 8 7 7 7 6 6 5 5 5 4 4 4 5 7 7 7 7 7 6 6
8 9 8 9 10 9 9 8 7 5 6 9 9 11 12 9 12 13 11 12 10 8 8 8 8 7 7 6 6 5 5 5 5 5 4 5 6 7 7 8 8 7 6 6

GFSNW_con_lsi_246.txt.gz
Lid_Strength_Index
5 5 4 4 4 4 3 2 5 1 1 6 4 7 6 6 5 4 5 5 6 7 7 7 7 7 6 4 4 6 5 7 10 8 6 6 6 7 7 10 12 10 11 11
5 5 4 4 4 4 4 4 4 -0 1 8 7 6 6 5 6 5 5 6 6 6 7 9 7 6 5 5 5 6 6 8 11 11 8 7 8 7 7 8 8 10 12 10
5 4 4 4 4 4 3 4 6 3 2 3 7 8 7 7 5 5 5 5 5 6 7 6 8 7 6 5 5 5 5 7 9 11 9 7 9 8 7 8 11 10 10 9
5 4 4 4 4 4 3 3 6 5 7 6 7 6 7 8 8 6 5 6 6 7 8 8 8 7 7 6 6 5 6 9 8 7 7 7 8 8 8 9 8 10 9 8
5 5 4 4 4 4 3 6 7 6 7 5 6 7 8 8 7 7 7 8 7 7 8 7 8 7 7 7 6 6 6 9 8 9 8 7 9 8 8 8 7 8 8 8
5 4 4 4 4 4 5 5 4 7 7 6 6 7 8 8 6 6 6 6 7 8 7 6 5 5 5 6 7 7 8 9 10 11 9 9 11 9 8 7 7 7 9 7
5 4 4 4 4 4 4 5 6 6 8 8 8 7 7 7 7 7 6 5 7 6 3 4 4 5 5 5 6 5 8 8 9 12 10 15 9 6 7 7 7 6 6 6
5 4 4 4 4 4 4 4 6 8 9 8 8 7 7 6 6 7 6 5 4 3 5 7 9 9 8 8 7 7 7 7 12 14 14 11 9 7 8 8 8 5 6 6
4 4 4 4 4 4 4 4 4 7 8 7 7 8 7 7 7 6 6 4 3 4 7 8 12 12 10 11 9 6 7 7 10 11 15 16 9 6 5 5 10 5 5 6
4 4 4 4 4 4 4 4 3 6 8 6 5 6 8 6 6 7 5 6 5 5 9 11 12 11 8 12 11 11 10 9 11 11 13 10 6 5 5 11 9 5 5 5
3 3 3 3 3 3 3 5 3 6 8 7 6 6 7 7 7 9 7 7 6 7 11 12 12 12 9 10 8 9 10 11 11 10 12 15 5 6 8 6 4 4 4 4
3 3 3 3 3 3 3 5 4 4 8 7 5 5 4 5 6 7 7 7 7 6 9 8 10 12 9 10 13 8 12 8 10 9 9 6 4 5 4 3 4 4 4 4
2 2 2 2 2 2 2 3 4 5 7 7 6 6 4 3 4 4 9 7 5 5 4 7 9 11 10 13 10 10 8 7 8 9 7 6 5 4 3 3 3 3 3 3
1 1 1 1 1 1 1 2 3 4 7 10 7 4 5 3 3 3 4 5 3 4 5 6 7 10 6 9 9 10 8 7 8 8 7 6 5 4 4 3 3 3 3 3
1 1 1 0 0 1 1 0 1 2 6 9 8 5 4 3 3 5 4 4 5 7 8 9 8 6 7 6 7 8 7 8 9 9 5 5 4 4 3 4 4 3 3 3
0 -0 -0 -0 -0 0 1 4 0 1 2 7 8 4 4 4 3 3 4 4 5 5 7 7 8 4 7 9 9 6 5 5 5 5 4 4 4 3 3 3 3 3 3 3
-0 -0 -1 -1 -0 -0 2 4 1 0 1 6 8 6 3 3 2 3 4 3 5 5 6 7 6 7 6 8 10 6 5 4 4 4 4 5 4 5 3 3 3 3 2 2
-1 -1 -1 -0 -0 0 1 -0 -0 -1 3 4 9 7 5 2 6 5 3 5 5 5 6 5 6 5 6 9 6 5 5 4 4 4 3 4 3 3 3 3 3 3 3 3
-1 -0 -0 -0 1 3 2 -0 0 -1 2 7 7 8 7 2 4 4 5 4 7 5 7 7 5 7 9 7 6 5 4 5 5 4 4 4 4 4 3 3 3 4 4 3
-1 -0 2 4 1 -0 -1 1 4 5 4 4 7 4 7 4 5 6 6 5 6 8 6 4 7 7 4 4 4 3 4 3 4 5 5 4 4 4 4 3 3 3 3 3
1 3 4 0 -0 1 3 7 8 6 9 6 5 5 6 3 7 7 5 8 7 9 7 8 8 8 6 4 4 3 3 3 3 3 3 3 3 3 4 3 3 3 2 3
1 1 -1 -0 2 4 8 8 7 8 8 5 6 6 4 4 3 6 5 8 9 11 6 8 10 6 4 4 4 3 2 2 2 2 3 2 3 3 3 3 3 2 2 2
-1 2 4 4 5 10 10 11 9 9 6 4 5 7 6 5 4 5 7 10 11 6 10 10 7 6 5 4 4 4 3 3 2 2 3 3 3 2 2 3 2 2 2 2
4 6 9 8 9 8 8 8 8 6 5 5 6 8 8 6 7 6 10 7 7 12 13 11 7 5 5 4 4 3 4 4 3 3 2 3 3 3 2 2 2 2 2 2
6 5 10 8 5 4 5 5 6 5 5 6 7 7 7 8 8 6 8 10 11 10 9 7 6 5 4 4 4 3 3 3 3 3 2 2 2 3 2 2 2 2 2 2
4 6 7 5 6 6 5 5 5 3 4 4 6 8 9 9 8 9 9 10 10 8 6 5 4 4 4 3 3 3 3 3 3 2 2 2 3 3 2 2 2 2 2 2
6 5 4 5 5 5 5 4 5 3 5 8 8 11 11 7 9 10 7 8 5 5 4 3 3 3 4 3 3 3 3 3 3 3 3 2 2 2 2 3 2 2 1 1